Deer Park, WA
on Friday, January 11, 2013

Friday
Previous Day Next Day
Daily Summary
 ActualAverageRecord
Temperature
Mean Temperature °F 27°F  
Max Temperature 31°F 33°F 45°F (2014)
Min Temperature 6°F 21°F -2°F (2007)
Degree Days
Heating Degree Days 46 38  
Month to date heating degree days 448 430  
Since 1 July heating degree days 3241 3657  
Cooling Degree Days 0 0  
Month to date cooling degree days 0 0  
Year to date cooling degree days 0 0  
Moisture
Dew Point 15°F   
Average Humidity 70    
Maximum Humidity 92    
Minimum Humidity 47    
Precipitation
Precipitation 0.00 in 0.10 in 0.24 in (2014)
Month to date precipitation 1.11 1.13  
Year to date precipitation 1.11 1.13  
Wind
Wind Speed 4 mph   
Max Wind Speed 13 mph   
Max Gust Speed 15 mph   
Visibility 10 miles   
Events     

Key: T is trace of precipitation, MM is missing value
Source: NWS Daily Summary
Time(PST)TemperatureDew PointHumidity Pressure Visibility Wind DirectionWind SpeedGust SpeedPrecipitationEvents Conditions
12:53 AM 24.1°F 21.9°F 91% 29.95 in 10.0 miles North 5.8 mph - N/A   Overcast
1:53 AM 27.0°F 23.0°F 85% 29.98 in 10.0 miles NNE 6.9 mph - N/A   Overcast
2:53 AM 27.0°F 23.0°F 85% 30.00 in 10.0 miles NNE 8.1 mph - N/A   Overcast
3:53 AM 26.1°F 21.0°F 81% 30.01 in 10.0 miles NNE 11.5 mph - N/A   Overcast
4:53 AM 26.1°F 19.9°F 78% 30.03 in 10.0 miles North 5.8 mph - N/A   Overcast
5:53 AM 25.0°F 19.9°F 81% 30.07 in 10.0 miles NNE 6.9 mph - N/A   Overcast
6:53 AM 21.9°F 18.0°F 85% 30.11 in 10.0 miles North 4.6 mph - N/A   Overcast
7:53 AM 21.0°F 18.0°F 88% 30.14 in 10.0 miles North 6.9 mph - N/A   Overcast
8:53 AM 21.9°F 17.1°F 82% 30.16 in 10.0 miles NNE 5.8 mph - N/A   Overcast
9:53 AM 18.0°F 16.0°F 92% 30.19 in 10.0 miles NW 3.5 mph - N/A   Partly Cloudy
10:53 AM 23.0°F 19.0°F 85% 30.20 in 10.0 miles Calm Calm - N/A   Clear
12:53 PM 30.0°F 15.1°F 54% 30.19 in 10.0 miles NE 6.9 mph - N/A   Clear
1:53 PM 30.0°F 12.9°F 49% 30.19 in 10.0 miles North 4.6 mph - N/A   Clear
2:53 PM 28.9°F 12.0°F 49% 30.21 in 10.0 miles North 4.6 mph - N/A   Clear
3:53 PM 24.1°F 10.0°F 55% 30.23 in 10.0 miles Calm Calm - N/A   Clear
4:53 PM 16.0°F 12.9°F 88% 30.25 in 10.0 miles Calm Calm - N/A   Clear
5:53 PM 14.0°F 10.9°F 88% 30.27 in 10.0 miles Calm Calm - N/A   Partly Cloudy
6:35 PM 10.4°F 8.6°F 92% 30.18 in 2.0 miles SSE 4.6 mph - N/A   Scattered Clouds
6:44 PM 10.4°F 8.6°F 92% 30.18 in 10.0 miles Calm Calm - N/A   Mostly Cloudy
6:53 PM 12.0°F 10.9°F 95% 30.29 in 10.0 miles Calm Calm - N/A   Overcast
7:53 PM 15.1°F 12.0°F 88% 30.28 in 10.0 miles Calm Calm - N/A   Mostly Cloudy
8:53 PM 10.9°F 9.0°F 92% 30.27 in 10.0 miles ESE 5.8 mph - N/A   Mostly Cloudy
9:53 PM 16.0°F 12.9°F 88% 30.28 in 10.0 miles SSE 4.6 mph - N/A   Scattered Clouds
10:53 PM 8.1°F 7.0°F 95% 30.29 in 9.0 miles Calm Calm - N/A   Clear
11:53 PM 10.0°F 9.0°F 95% 30.28 in 8.0 miles SE 5.8 mph - N/A   Clear
Moon Phase
Jan. 11 Jan. 18 Jan. 26 Feb. 03 Feb. 10
Sunrise:07:36 AM (PST) Moon Rise:07:09 AM (PST)1/11
Sunset:04:19 PM (PST) Moon Set:04:47 PM (PST)1/11

Copyright © 2014 The Weather Underground, Inc.